This demonstration page uses our WeatherBlox Daily Observations layout. Learn more.

Left ArrowRight Arrow

34.16533, -84.80231

Hourly Observations for April 25, 2016

Temp ( °F °C ) Dew Point ( °F °C ) Humidity (%) Winds ( mph kmh ) Pressure ( in mb ) Visibility ( mi km ) Precip ( " mm )
12:53 am 00:53 Clear 57 13.9 54 12.2 90 90 Calm 30.01 1016 10 16 0.00 0.00
1:53 am 01:53 Clear 55 12.8 54 12.2 96 96 Calm 30.00 1016 10 16 0.00 0.00
2:53 am 02:53 Clear 58 14.4 54 12.2 87 87 Calm 29.99 1016 10 16 0.00 0.00
3:53 am 03:53 Partly Cloudy 55 12.8 53 11.7 93 93 Calm 29.99 1016 10 16 0.00 0.00
4:53 am 04:53 Mostly Cloudy 63 17.2 55 12.8 76 76 S 10 17 29.98 1015 10 16 0.00 0.00
5:53 am 05:53 Cloudy 63 17.2 55 12.8 76 76 S 8 13 30.00 1016 10 16 0.00 0.00
6:53 am 06:53 Cloudy 62 16.7 56 13.3 80 80 SE 3 6 30.02 1017 10 16 0.00 0.00
7:53 am 07:53 Cloudy 62 16.7 57 13.9 84 84 NE 3 6 30.04 1017 10 16 0.00 0.00
8:53 am 08:53 Cloudy 64 17.8 58 14.4 81 81 Calm 30.05 1018 10 16 0.00 0.00
9:53 am 09:53 Mostly Sunny 68 20 58 14.4 70 70 S 5 7 30.04 1017 10 16 0.00 0.00
10:53 am 10:53 Mostly Sunny 73 22.8 58 14.4 59 59 VRB 7 11 30.03 1017 10 16 0.00 0.00
11:53 am 11:53 Sunny 76 24.4 57 13.9 52 52 VRB 5 7 30.02 1017 10 16 0.00 0.00
12:53 pm 12:53 Partly Cloudy 78 25.6 58 14.4 50 50 SSE 10 17 30.00 1016 10 16 0.00 0.00
1:53 pm 13:53 Mostly Cloudy 77 25 57 13.9 50 50 S 7 11 29.99 1016 10 16 0.00 0.00
2:53 pm 14:53 Partly Cloudy 79 26.1 57 13.9 47 47 S 8 13 29.96 1015 10 16 0.00 0.00
3:53 pm 15:53 Partly Cloudy 81 27.2 57 13.9 44 44 S 7 11 29.95 1014 10 16 0.00 0.00
4:53 pm 16:53 Mostly Sunny 81 27.2 56 13.3 42 42 SSW 7 11 29.92 1013 10 16 0.00 0.00
5:53 pm 17:53 Sunny 80 26.7 57 13.9 45 45 S 12 19 29.92 1013 10 16 0.00 0.00
6:53 pm 18:53 Sunny 78 25.6 58 14.4 50 50 S 6 9 29.91 1013 10 16 0.00 0.00
7:53 pm 19:53 Sunny 74 23.3 58 14.4 57 57 S 3 6 29.90 1013 10 16 0.00 0.00
8:53 pm 20:53 Clear 68 20 59 15 73 73 S 6 9 29.92 1013 10 16 0.00 0.00
9:53 pm 21:53 Clear 66 18.9 59 15 78 78 S 5 7 29.94 1014 10 16 0.00 0.00
10:53 pm 22:53 Clear 63 17.2 59 15 87 87 Calm 29.95 1014 10 16 0.00 0.00
11:53 pm 23:53 Clear 61 16.1 59 15 93 93 Calm 29.94 1014 10 16 0.00 0.00

Powered by AerisWeather